Regional Weather Roundup
Issued by NWS

Home | Current Version | Previous Version | Graphics & Text | Print | Product List | Glossary On
Versions: 1 2 3 4 5 6 7 8 9 10 11 12 13 14 15 16 17 18 19 20 21 22 23 24 25 26 27 28 29 30 31 32 33 34 35 36 37 38 39 40 41 42 43 44 45 46 47 48 49 50
000
ASUS43 KTOP 220059
RWRKS

WEATHER ROUNDUP FOR KANSAS
NATIONAL WEATHER SERVICE GOODLAND KS
700 PM CST WED FEB 21 2018

NOTE:  "FAIR" INDICATES FEW OR NO CLOUDS BELOW 12,000 FEET WITH NO
SIGNIFICANT WEATHER AND/OR OBSTRUCTIONS TO VISIBILITY.

KSZ001>006-013>018-027>032-041>047-220200-
NORTHWEST KANSAS

CITY           SKY/WX    TMP DP  RH WIND       PRES   REMARKS
GOODLAND       CLOUDY    24   9  52 SE14      30.26F WCI  12
HAYS           CLOUDY    25   3  38 NE13      30.39F WCI  14
HILL CITY      CLOUDY    27   1  32 E12       30.40S WCI  17
RUSSELL        CLOUDY    28   4  35 NE10      30.40F WCI  19
$$

KSZ061>065-074>080-084>089-220200-
SOUTHWEST KANSAS

CITY           SKY/WX    TMP DP  RH WIND       PRES   REMARKS
DODGE CITY     CLOUDY    25   2  37 E10       30.34F WCI  15
GARDEN CITY    CLOUDY    23  -1  35 E12       30.32S WCI  12
GREAT BEND     CLOUDY    25   8  48 NE12      30.40F WCI  14
LIBERAL        CLOUDY    25   7  46 E10       30.32R WCI  15
$$

KSZ066>073-081>083-090>101-220200-
SOUTHEAST KANSAS

CITY           SKY/WX    TMP DP  RH WIND       PRES   REMARKS
CHANUTE        CLOUDY    27  25  92 NE7       30.45R
COFFEYVILLE    CLOUDY    28  26  92 NE12      30.44R WCI  18
HUTCHINSON     CLOUDY    26  14  60 NE7       30.42S
MEDICINE LODGE   N/A     23  18  81 NE10      30.39F WCI  12
NEWTON         FLURRIES  23  18  81 NE8       30.43F
PARSONS        CLOUDY    28  26  92 VRB7      30.45R
WICHITA INTL   FRZ RAIN  25  21  85 NE17      30.42S FOG     WCI  12
WICHITA JABRA  MIX PCPN  24  20  84 NE14      30.44R WCI  12
WICHITA MCCONL FRZ RAIN  25  20  82 NE12      30.43  WCI  14
WINFIELD       CLOUDY    26  26 100 NE10      30.43R WCI  16
$$

KSZ007>012-019>026-033>040-048>060-102>105-220200-
NORTHEAST KANSAS

CITY           SKY/WX    TMP DP  RH WIND       PRES   REMARKS
CONCORDIA      CLOUDY    26  11  52 E12       30.46S WCI  16
EMPORIA        CLOUDY    24  20  84 NE12      30.47R WCI  13
LAWRENCE       MOCLDY    27  23  85 NE9       30.50F
MANHATTAN      CLOUDY    28  17  63 NE15      30.48F WCI  16
OLATHE IND     CLOUDY    27  23  85 NE9       30.48F
OLATHE EXE     CLOUDY    25  22  88 NE12G18   30.48F WCI  14
SALINA         CLOUDY    29  14  53 NE9       30.47S
TOPEKA BILLARD MOCLDY    28  22  78 NE9       30.50F
TOPEKA FORBES  CLOUDY    27  22  81 NE9       30.48S
$$




USA.gov is the U.S. government's official web portal to all federal, state and local government web resources and services.